Darstellungsparameter: Aktuell verwendete Einstellungen:
Skalierung der Graphiken ... ?
xyx+y,   Skalierungsfaktor:      Skalierung: Modus: x, Faktor: 1
Darstellungszeitraum ... ?
Vom - - bis: - -   Zeitraum: 14.05.2010 - 15.05.2010
Min/Max/Avg-Anzeige ... ?
Zeige MMA aktuell
Zeige MMA Monat
Zeige MMA alles
Zeige --A aktuell
Zeige --A Monat
Zeige --A alles
Keine MMA-Anzeige
MMA:
Minimum Maximum Average (ber die Originaldaten)
MMA-Basis: 14.04.2020 - 16.05.2020
Quicknavigation für Darstellung... ?
Tage:      1T, 2T, 3T, 5T -1T -2T -3T -5T +1T +2T +3T +5T
Wochen: 1W, 2W, 3W -1W -2W -3W +1W +2W +3W
Monate: 1M, 3M, 6M -1M -3M -6M +1M +3M +6M
Jahre:    1J, 3J, 5J, 10J -1J -3J -5J -10J +1J +3J +5J +10J
Nutze für die Darstellung ... ?
Originaldaten oder Mittelwerte auf ...
Stundenbasis Tagesbasis Wochenbasis
Monatsbasis Jahresbasis      Datenbasis: Original-Daten
Darstellen als:
Statistik (Auto) Statistik J:M      Darstellung:
Zur Graphik,    zurück zur Übersicht aller Sensoren.
 
Tabellarische Datenbersicht: ?
 
Sensor: Nr:Datum:Temp:Abs-Feuchte:Windchill:Wind:
Aussen-T/F 1 14-05-2010 00:06:03 7 C 7.05 g/m*3 7 C 0 km/h
2 14-05-2010 00:18:03 6.9 C 7.16 g/m*3 6.9 C 0 km/h
3 14-05-2010 00:30:03 6.9 C 7.16 g/m*3 6.9 C 0 km/h
4 14-05-2010 00:42:03 7 C 7.21 g/m*3 7 C 0 km/h
5 14-05-2010 00:54:03 7 C 7.21 g/m*3 7 C 0 km/h
6 14-05-2010 01:06:03 6.9 C 7.24 g/m*3 6.9 C 0 km/h
7 14-05-2010 01:18:03 7 C 7.21 g/m*3 7 C 0 km/h
8 14-05-2010 01:30:03 7.1 C 7.25 g/m*3 7.1 C 0 km/h
9 14-05-2010 01:42:03 7.1 C 7.25 g/m*3 7.1 C 0 km/h
10 14-05-2010 01:54:03 7.1 C 7.25 g/m*3 7.1 C 0 km/h
11 14-05-2010 02:06:03 7.1 C 7.25 g/m*3 7.1 C 0 km/h
12 14-05-2010 02:18:03 7 C 7.21 g/m*3 7 C 0 km/h
13 14-05-2010 02:30:03 6.9 C 7.24 g/m*3 6.9 C 0 km/h
14 14-05-2010 02:42:03 7 C 7.21 g/m*3 7 C 0 km/h
15 14-05-2010 02:54:03 7 C 7.28 g/m*3 7 C 0 km/h
16 14-05-2010 03:06:03 7 C 7.28 g/m*3 7 C 0 km/h
17 14-05-2010 03:18:03 6.9 C 7.24 g/m*3 6.9 C 0 km/h
18 14-05-2010 03:30:04 7 C 7.28 g/m*3 7 C 0 km/h
19 14-05-2010 03:42:04 7 C 7.28 g/m*3 7 C 0 km/h
20 14-05-2010 03:54:04 7 C 7.28 g/m*3 7 C 0 km/h
21 14-05-2010 04:06:04 7 C 7.28 g/m*3 7 C 0 km/h
22 14-05-2010 04:18:04 7 C 7.28 g/m*3 7 C 0 km/h
23 14-05-2010 04:30:04 6.9 C 7.24 g/m*3 6.9 C 0 km/h
24 14-05-2010 04:42:04 6.9 C 7.24 g/m*3 6.9 C 0 km/h
25 14-05-2010 04:54:04 6.9 C 7.24 g/m*3 6.9 C 0 km/h
Sensor: Nr:Datum:Temp:Abs-Feuchte:Windchill:Wind:
Aussen-T/F 26 14-05-2010 05:06:04 6.8 C 7.19 g/m*3 6.8 C 0 km/h
27 14-05-2010 05:18:04 6.9 C 7.24 g/m*3 6.9 C 0 km/h
28 14-05-2010 05:30:04 6.8 C 7.27 g/m*3 6.8 C 0 km/h
29 14-05-2010 05:42:04 6.9 C 7.31 g/m*3 6.9 C 0 km/h
30 14-05-2010 05:54:04 7 C 7.28 g/m*3 7 C 0 km/h
31 14-05-2010 06:06:04 7.1 C 7.33 g/m*3 7.1 C 0 km/h
32 14-05-2010 06:18:04 7.1 C 7.33 g/m*3 7.1 C 0 km/h
33 14-05-2010 06:30:04 7 C 7.28 g/m*3 7 C 0 km/h
34 14-05-2010 06:42:04 7.1 C 7.33 g/m*3 7.1 C 0 km/h
35 14-05-2010 06:54:04 7.2 C 7.38 g/m*3 7.2 C 0 km/h
36 14-05-2010 07:06:02 7.2 C 7.3 g/m*3 7.2 C 0 km/h
37 14-05-2010 07:18:02 7.3 C 7.35 g/m*3 7.3 C 0 km/h
38 14-05-2010 07:30:02 7.5 C 7.44 g/m*3 7.5 C 0 km/h
39 14-05-2010 07:42:02 7.5 C 7.44 g/m*3 7.5 C 0 km/h
40 14-05-2010 07:54:01 7.5 C 7.36 g/m*3 7.5 C 0 km/h
41 14-05-2010 08:06:02 7.7 C 7.38 g/m*3 7.7 C 0 km/h
42 14-05-2010 08:18:01 7.9 C 7.47 g/m*3 7.9 C 0 km/h
43 14-05-2010 08:30:01 8.1 C 7.41 g/m*3 8.1 C 0 km/h
44 14-05-2010 08:42:02 7.9 C 7.31 g/m*3 7.9 C 0 km/h
45 14-05-2010 08:54:02 8 C 7.19 g/m*3 8 C 0 km/h
46 14-05-2010 09:06:02 8 C 7.19 g/m*3 8 C 0 km/h
47 14-05-2010 09:18:01 7.9 C 7.15 g/m*3 7.9 C 0 km/h
48 14-05-2010 09:30:01 8 C 7.03 g/m*3 8 C 0 km/h
49 14-05-2010 09:42:02 8.6 C 7.39 g/m*3 8.6 C 0 km/h
50 14-05-2010 09:54:02 8.4 C 7.13 g/m*3 8.4 C 0 km/h
Sensor: Nr:Datum:Temp:Abs-Feuchte:Windchill:Wind:
Aussen-T/F 51 14-05-2010 10:06:02 8.7 C 7.18 g/m*3 8.7 C 0 km/h
52 14-05-2010 10:18:02 9.4 C 7.33 g/m*3 9.4 C 0 km/h
53 14-05-2010 10:30:02 9.5 C 7.01 g/m*3 9.5 C 0 km/h
54 14-05-2010 10:42:02 10 C 7.24 g/m*3 10 C 0 km/h
55 14-05-2010 10:54:01 10.3 C 7.18 g/m*3 10.3 C 0 km/h
56 14-05-2010 11:06:02 11 C 7.31 g/m*3 11 C 0 km/h
57 14-05-2010 11:18:02 10.5 C 6.6 g/m*3 10.5 C 0 km/h
58 14-05-2010 11:30:02 10.1 C 6.34 g/m*3 10.1 C 0 km/h
59 14-05-2010 11:42:02 10.4 C 6.75 g/m*3 10.4 C 0 km/h
60 14-05-2010 11:54:02 9.9 C 6.82 g/m*3 9.9 C 0 km/h
61 14-05-2010 12:06:01 9.1 C 6.39 g/m*3 9.1 C 0 km/h
62 14-05-2010 12:18:02 9 C 6.44 g/m*3 9 C 0 km/h
63 14-05-2010 12:30:02 9.3 C 7.1 g/m*3 9.3 C 0 km/h
64 14-05-2010 12:42:01 9.3 C 7.28 g/m*3 9.3 C 0 km/h
65 14-05-2010 12:54:02 9.1 C 7.28 g/m*3 9.1 C 0 km/h
66 14-05-2010 13:06:01 9.3 C 7.46 g/m*3 9.3 C 0 km/h
67 14-05-2010 13:18:01 9.5 C 7.65 g/m*3 9.5 C 0 km/h
68 14-05-2010 13:30:01 9.6 C 7.69 g/m*3 9.6 C 0 km/h
69 14-05-2010 13:42:02 9.7 C 7.74 g/m*3 9.7 C 0 km/h
70 14-05-2010 13:54:02 9.2 C 7.41 g/m*3 9.2 C 0 km/h
71 14-05-2010 14:06:01 9 C 7.41 g/m*3 9 C 0 km/h
72 14-05-2010 14:18:02 9.2 C 7.59 g/m*3 9.2 C 0 km/h
73 14-05-2010 14:30:02 9.5 C 7.74 g/m*3 9.5 C 0 km/h
74 14-05-2010 14:42:02 9.7 C 7.84 g/m*3 9.7 C 0 km/h
75 14-05-2010 14:54:02 10.5 C 8.15 g/m*3 10.5 C 0 km/h
Sensor: Nr:Datum:Temp:Abs-Feuchte:Windchill:Wind:
Aussen-T/F 76 14-05-2010 15:06:02 11.2 C 8.21 g/m*3 11.2 C 0 km/h
77 14-05-2010 15:18:01 11.7 C 7.95 g/m*3 11.7 C 0 km/h
78 14-05-2010 15:30:01 12 C 7.67 g/m*3 12 C 0 km/h
79 14-05-2010 15:42:02 12.2 C 7.23 g/m*3 12.2 C 0 km/h
80 14-05-2010 15:54:02 12.2 C 6.91 g/m*3 12.2 C 0 km/h
81 14-05-2010 16:06:02 12.6 C 6.97 g/m*3 12.6 C 0 km/h
82 14-05-2010 16:18:01 12.8 C 7.06 g/m*3 12.8 C 0 km/h
83 14-05-2010 16:30:01 13.3 C 6.93 g/m*3 13.3 C 0 km/h
84 14-05-2010 16:42:02 13.4 C 6.63 g/m*3 13.4 C 0 km/h
85 14-05-2010 16:54:02 12.8 C 6.27 g/m*3 12.8 C 0 km/h
86 14-05-2010 17:06:02 12.2 C 6.37 g/m*3 12.2 C 0 km/h
87 14-05-2010 17:18:02 11.9 C 6.25 g/m*3 11.9 C 0 km/h
88 14-05-2010 17:30:02 11.4 C 6.77 g/m*3 11.4 C 0 km/h
89 14-05-2010 17:42:02 11 C 6.81 g/m*3 11 C 0 km/h
90 14-05-2010 17:54:02 11.2 C 6.79 g/m*3 11.2 C 0 km/h
91 14-05-2010 18:06:02 11.5 C 6.71 g/m*3 11.5 C 0 km/h
92 14-05-2010 18:18:03 11.8 C 6.74 g/m*3 11.8 C 0 km/h
93 14-05-2010 18:30:03 12 C 6.82 g/m*3 12 C 0 km/h
94 14-05-2010 18:42:02 11.5 C 6.71 g/m*3 11.5 C 0 km/h
95 14-05-2010 18:54:02 11 C 6.81 g/m*3 11 C 0 km/h
96 14-05-2010 19:06:02 10.5 C 6.89 g/m*3 10.5 C 0 km/h
97 14-05-2010 19:18:03 10.3 C 6.99 g/m*3 10.3 C 0 km/h
98 14-05-2010 19:30:03 10.4 C 7.13 g/m*3 10.4 C 0 km/h
99 14-05-2010 19:42:02 10.5 C 6.98 g/m*3 10.5 C 0 km/h
100 14-05-2010 19:54:02 10.6 C 7.03 g/m*3 10.6 C 0 km/h
Sensor: Nr:Datum:Temp:Abs-Feuchte:Windchill:Wind:
Aussen-T/F 101 14-05-2010 20:06:02 10.5 C 7.08 g/m*3 10.5 C 0 km/h
102 14-05-2010 20:18:02 10.2 C 6.95 g/m*3 10.2 C 0 km/h
103 14-05-2010 20:30:02 9.9 C 6.91 g/m*3 9.9 C 0 km/h
104 14-05-2010 20:42:02 9.6 C 6.78 g/m*3 9.6 C 0 km/h
105 14-05-2010 20:54:02 9.5 C 6.92 g/m*3 9.5 C 0 km/h
106 14-05-2010 21:06:02 9.3 C 6.83 g/m*3 9.3 C 0 km/h
107 14-05-2010 21:18:02 9.2 C 6.88 g/m*3 9.2 C 0 km/h
108 14-05-2010 21:30:02 9.1 C 6.83 g/m*3 9.1 C 0 km/h
109 14-05-2010 21:42:02 9.1 C 6.92 g/m*3 9.1 C 0 km/h
110 14-05-2010 21:54:02 9 C 6.88 g/m*3 9 C 0 km/h
111 14-05-2010 22:06:02 9.1 C 7.01 g/m*3 9.1 C 0 km/h
112 14-05-2010 22:18:02 9.1 C 7.01 g/m*3 9.1 C 0 km/h
113 14-05-2010 22:30:02 9.1 C 7.1 g/m*3 9.1 C 0 km/h
114 14-05-2010 22:42:02 9.1 C 7.1 g/m*3 9.1 C 0 km/h
115 14-05-2010 22:55:03 9 C 7.14 g/m*3 9 C 0 km/h
116 14-05-2010 23:07:03 8.6 C 7.13 g/m*3 8.6 C 0 km/h
117 14-05-2010 23:19:03 8.2 C 7.12 g/m*3 8.2 C 0 km/h
118 14-05-2010 23:31:03 8.2 C 7.2 g/m*3 8.2 C 0 km/h
119 14-05-2010 23:43:03 8.1 C 7.16 g/m*3 8.1 C 0 km/h
120 14-05-2010 23:55:03 8.1 C 7.24 g/m*3 8.1 C 0 km/h
121 15-05-2010 00:07:03 8 C 7.19 g/m*3 8 C 0 km/h
122 15-05-2010 00:19:03 8 C 7.19 g/m*3 8 C 0 km/h
123 15-05-2010 00:31:04 7.9 C 7.23 g/m*3 7.9 C 0 km/h
124 15-05-2010 00:43:04 7.8 C 7.18 g/m*3 7.8 C 0 km/h
125 15-05-2010 00:55:04 7.8 C 7.18 g/m*3 7.8 C 0 km/h
Sensor: Nr:Datum:Temp:Abs-Feuchte:Windchill:Wind:
Aussen-T/F 126 15-05-2010 01:07:04 7.9 C 7.23 g/m*3 7.9 C 0 km/h
127 15-05-2010 01:19:04 7.8 C 7.18 g/m*3 7.8 C 0 km/h
128 15-05-2010 01:31:04 7.6 C 7.09 g/m*3 7.6 C 0 km/h
129 15-05-2010 01:43:04 7.6 C 7.09 g/m*3 7.6 C 0 km/h
130 15-05-2010 01:55:04 7.6 C 7.09 g/m*3 7.6 C 0 km/h
131 15-05-2010 02:07:04 7.5 C 7.04 g/m*3 7.5 C 0 km/h
132 15-05-2010 02:19:04 7.5 C 7.12 g/m*3 7.5 C 0 km/h
133 15-05-2010 02:31:04 7.6 C 7.17 g/m*3 7.6 C 0 km/h
134 15-05-2010 02:43:04 7.8 C 7.26 g/m*3 7.8 C 0 km/h
135 15-05-2010 02:55:04 7.8 C 7.26 g/m*3 7.8 C 0 km/h
136 15-05-2010 03:07:04 7.6 C 7.17 g/m*3 7.6 C 0 km/h
137 15-05-2010 03:19:04 7.6 C 7.17 g/m*3 7.6 C 0 km/h
138 15-05-2010 03:31:04 7.6 C 7.25 g/m*3 7.6 C 0 km/h
139 15-05-2010 03:43:04 7.6 C 7.25 g/m*3 7.6 C 0 km/h
140 15-05-2010 03:55:04 7.6 C 7.25 g/m*3 7.6 C 0 km/h
141 15-05-2010 04:07:04 7.6 C 7.25 g/m*3 7.6 C 0 km/h
142 15-05-2010 04:19:04 7.7 C 7.3 g/m*3 7.7 C 0 km/h
143 15-05-2010 04:31:04 7.6 C 7.25 g/m*3 7.6 C 0 km/h
144 15-05-2010 04:43:05 7.6 C 7.25 g/m*3 7.6 C 0 km/h
145 15-05-2010 04:55:05 7.5 C 7.2 g/m*3 7.5 C 0 km/h
146 15-05-2010 05:07:05 7.4 C 7.24 g/m*3 7.4 C 0 km/h
147 15-05-2010 05:19:05 7.3 C 7.19 g/m*3 7.3 C 0 km/h
148 15-05-2010 05:31:05 7.3 C 7.19 g/m*3 7.3 C 0 km/h
149 15-05-2010 05:43:05 7.2 C 7.14 g/m*3 7.2 C 0 km/h
150 15-05-2010 05:55:05 7.1 C 7.1 g/m*3 7.1 C 0 km/h
Sensor: Nr:Datum:Temp:Abs-Feuchte:Windchill:Wind:
Aussen-T/F 151 15-05-2010 06:07:05 7.1 C 7.1 g/m*3 7.1 C 0 km/h
152 15-05-2010 06:19:05 7.1 C 7.1 g/m*3 7.1 C 0 km/h
153 15-05-2010 06:31:05 7.1 C 7.18 g/m*3 7.1 C 0 km/h
154 15-05-2010 06:43:05 7.1 C 7.18 g/m*3 7.1 C 0 km/h
155 15-05-2010 06:55:05 7.1 C 7.18 g/m*3 7.1 C 0 km/h
156 15-05-2010 07:07:05 7.1 C 7.18 g/m*3 7.1 C 0 km/h
157 15-05-2010 07:19:05 7.4 C 7.32 g/m*3 7.4 C 0 km/h
158 15-05-2010 07:31:05 7.5 C 7.36 g/m*3 7.5 C 0 km/h
159 15-05-2010 07:43:05 7.8 C 7.51 g/m*3 7.8 C 0 km/h
160 15-05-2010 07:55:02 8.2 C 7.62 g/m*3 8.2 C 0 km/h
161 15-05-2010 08:07:02 8.3 C 7.59 g/m*3 8.3 C 0 km/h
162 15-05-2010 08:19:02 8.2 C 7.29 g/m*3 8.2 C 0 km/h
163 15-05-2010 08:31:03 8.6 C 7.39 g/m*3 8.6 C 0 km/h
164 15-05-2010 08:43:03 8.5 C 7 g/m*3 8.5 C 0 km/h
165 15-05-2010 08:55:02 8.8 C 7.05 g/m*3 8.8 C 0 km/h
166 15-05-2010 09:07:02 9 C 6.88 g/m*3 9 C 0 km/h
167 15-05-2010 09:19:02 9.3 C 6.92 g/m*3 9.3 C 0 km/h
168 15-05-2010 09:31:02 9.5 C 6.83 g/m*3 9.5 C 0 km/h
169 15-05-2010 09:43:02 9.6 C 6.78 g/m*3 9.6 C 0 km/h
170 15-05-2010 09:55:01 10 C 6.67 g/m*3 10 C 0 km/h
171 15-05-2010 10:07:02 10.5 C 6.6 g/m*3 10.5 C 0 km/h
172 15-05-2010 10:19:01 10.7 C 6.48 g/m*3 10.7 C 0 km/h
173 15-05-2010 10:31:02 10.6 C 6.34 g/m*3 10.6 C 0 km/h
174 15-05-2010 10:43:02 11.1 C 6.35 g/m*3 11.1 C 0 km/h
175 15-05-2010 10:55:02 11.1 C 6.35 g/m*3 11.1 C 0 km/h
Sensor: Nr:Datum:Temp:Abs-Feuchte:Windchill:Wind:
Aussen-T/F 176 15-05-2010 11:07:02 10.9 C 6.27 g/m*3 10.9 C 0 km/h
177 15-05-2010 11:19:01 10.8 C 6.23 g/m*3 10.8 C 0 km/h
178 15-05-2010 11:31:02 10.9 C 6.17 g/m*3 10.9 C 0 km/h
179 15-05-2010 11:43:02 11.5 C 5.89 g/m*3 11.5 C 0 km/h
180 15-05-2010 11:55:02 11.9 C 6.04 g/m*3 11.9 C 0 km/h
181 15-05-2010 12:07:02 11.2 C 5.68 g/m*3 11.2 C 0 km/h
182 15-05-2010 12:19:02 11.1 C 5.64 g/m*3 11.1 C 0 km/h
183 15-05-2010 12:31:02 11.2 C 5.57 g/m*3 11.2 C 0 km/h
184 15-05-2010 12:43:02 12.4 C 5.46 g/m*3 12.4 C 0 km/h
185 15-05-2010 12:55:02 12.3 C 4.78 g/m*3 12.3 C 0 km/h
186 15-05-2010 13:07:02 13.9 C 5.04 g/m*3 13.9 C 0 km/h
187 15-05-2010 13:19:03 12 C 4.58 g/m*3 12 C 0 km/h
188 15-05-2010 13:31:02 11.1 C 5.14 g/m*3 11.1 C 0 km/h
189 15-05-2010 13:43:02 11.2 C 4.87 g/m*3 11.2 C 0 km/h
190 15-05-2010 13:55:02 12.1 C 4.5 g/m*3 12.1 C 0 km/h
191 15-05-2010 14:07:02 13.7 C 4.5 g/m*3 13.7 C 0 km/h
192 15-05-2010 14:19:02 15 C 4.62 g/m*3 15 C 0 km/h
193 15-05-2010 14:31:02 14.7 C 4.15 g/m*3 14.7 C 0 km/h
194 15-05-2010 14:43:02 14 C 3.98 g/m*3 14 C 0 km/h
195 15-05-2010 14:55:01 13.9 C 3.72 g/m*3 13.9 C 0 km/h
196 15-05-2010 15:07:01 14.3 C 3.56 g/m*3 14.3 C 0 km/h
197 15-05-2010 15:19:01 15.2 C 3.24 g/m*3 15.2 C 0 km/h
198 15-05-2010 15:31:01 15.8 C 2.69 g/m*3 15.8 C 0 km/h
199 15-05-2010 15:43:01 16 C 2.72 g/m*3 16 C 0 km/h
200 15-05-2010 15:55:01 16.2 C 2.76 g/m*3 16.2 C 0 km/h
Sensor: Nr:Datum:Temp:Abs-Feuchte:Windchill:Wind:
Aussen-T/F 201 15-05-2010 16:07:02 16.2 C 2.76 g/m*3 16.2 C 0 km/h
202 15-05-2010 16:19:01 15.1 C 2.58 g/m*3 15.1 C 0 km/h
203 15-05-2010 16:31:01 14.4 C 2.47 g/m*3 14.4 C 0 km/h
204 15-05-2010 16:43:01 14.4 C 2.97 g/m*3 14.4 C 0 km/h
205 15-05-2010 16:55:01 13.8 C 2.98 g/m*3 13.8 C 0 km/h
206 15-05-2010 17:07:02 13.9 C 3.12 g/m*3 13.9 C 0 km/h
207 15-05-2010 17:19:01 14 C 3.02 g/m*3 14 C 0 km/h
208 15-05-2010 17:31:02 14.1 C 3.16 g/m*3 14.1 C 0 km/h
209 15-05-2010 17:43:02 14 C 3.26 g/m*3 14 C 0 km/h
210 15-05-2010 17:55:02 14 C 3.26 g/m*3 14 C 0 km/h
211 15-05-2010 18:07:02 13.7 C 3.43 g/m*3 13.7 C 0 km/h
212 15-05-2010 18:19:01 14 C 3.62 g/m*3 14 C 0 km/h
213 15-05-2010 18:31:02 13.8 C 3.46 g/m*3 13.8 C 0 km/h
214 15-05-2010 18:43:02 13.7 C 3.43 g/m*3 13.7 C 0 km/h
215 15-05-2010 18:55:02 13.9 C 3.36 g/m*3 13.9 C 0 km/h
216 15-05-2010 19:07:02 13.9 C 3.24 g/m*3 13.9 C 0 km/h
217 15-05-2010 19:19:02 14.6 C 3.5 g/m*3 14.6 C 0 km/h
218 15-05-2010 19:31:02 15.1 C 3.23 g/m*3 15.1 C 0 km/h
219 15-05-2010 19:43:02 14.9 C 3.44 g/m*3 14.9 C 0 km/h
220 15-05-2010 19:55:02 14.4 C 3.58 g/m*3 14.4 C 0 km/h
221 15-05-2010 20:07:02 13.9 C 4.2 g/m*3 13.9 C 0 km/h
222 15-05-2010 20:19:02 13.3 C 4.62 g/m*3 13.3 C 0 km/h
223 15-05-2010 20:31:02 12.4 C 4.48 g/m*3 12.4 C 0 km/h
224 15-05-2010 20:43:02 11.6 C 4.47 g/m*3 11.6 C 0 km/h
225 15-05-2010 20:55:02 11.3 C 4.59 g/m*3 11.3 C 0 km/h
Sensor: Nr:Datum:Temp:Abs-Feuchte:Windchill:Wind:
Aussen-T/F 226 15-05-2010 21:07:02 11.4 C 4.62 g/m*3 11.4 C 0 km/h
227 15-05-2010 21:19:02 11.1 C 4.53 g/m*3 11.1 C 0 km/h
228 15-05-2010 21:31:02 10.8 C 4.55 g/m*3 10.8 C 0 km/h
229 15-05-2010 21:43:02 10.8 C 4.84 g/m*3 10.8 C 0 km/h
230 15-05-2010 21:55:01 10.8 C 4.84 g/m*3 10.8 C 0 km/h
231 15-05-2010 22:07:02 10.8 C 4.94 g/m*3 10.8 C 0 km/h
232 15-05-2010 22:19:02 11 C 5 g/m*3 11 C 0 km/h
233 15-05-2010 22:32:02 11.1 C 4.83 g/m*3 11.1 C 0 km/h
234 15-05-2010 22:44:03 11.2 C 4.66 g/m*3 11.2 C 0 km/h
235 15-05-2010 22:56:03 11.2 C 4.66 g/m*3 11.2 C 0 km/h
236 15-05-2010 23:08:03 11.1 C 4.73 g/m*3 11.1 C 0 km/h
237 15-05-2010 23:20:03 10.9 C 4.97 g/m*3 10.9 C 0 km/h
238 15-05-2010 23:32:03 10.9 C 5.07 g/m*3 10.9 C 0 km/h
239 15-05-2010 23:44:03 10.8 C 5.04 g/m*3 10.8 C 0 km/h
240 15-05-2010 23:56:03 10.5 C 5.04 g/m*3 10.5 C 0 km/h

Legende:
   Min
   Max


Maximal/Minimal-Werte vom 14.04.2020 - 16.05.2020

Sensor Min Max Avg
Temp
(Aussen-T/F)
-0.1 °C
15-04-2020  06:55:00
26.2 °C
17-04-2020  18:05:00
11.98 °C

Die Daten stammen von einer Davis Vantage Pro 2 Wetter-Station und werden unter Linux mit der Software wview2wettercgi und aufbereitet. Alle Angaben erfolgen ohne Gewähr für ihre Vollständigkeit oder Richtigkeit.
Kontakt: Rainer Krienke krienke@uni-koblenz.de . Meine Webseiten an der Uni Koblenz oder privat.
Version: $Revision: 0.78 $